Regional Weather Roundup
Issued by NWS Sterling, VA

Current Version | Previous Version | Text Only | Print | Product List | Glossary On
Versions: 1 2 3 4 5 6 7 8 9 10 11 12 13 14 15 16 17 18 19 20 21 22 23 24 25 26 27 28 29 30 31 32 33 34 35 36 37 38 39 40 41 42 43 44 45 46 47 48 49 50
000
ASUS41 KLWX 301010
RWRLWX

REGIONAL WEATHER ROUNDUP
NATIONAL WEATHER SERVICE BALTIMORE MD/WASHINGTON DC
600 AM EDT MON MAR 30 2015

Note: "FAIR" indicates few or no clouds below 12,000 feet
with no significant weather and/or obstructions to visibility.
 TC=TEMPERATURE CELSIUS

 * =Non NWS site. Station does not report precipitation (e.g. rain,
    snow, etc.), thunder, or fog.

DCZ001-MDZ009-015-VAZ040>042-051-053>054-301100-
WASHINGTON METRO

CITY           SKY/WX    TMP DP  RH WIND       PRES   REMARKS
WASHINGTON NAT CLOUDY    44  26  49 S14       29.96F
DULLES         CLOUDY    42  19  39 S9        29.94F
ANDREWS AFB    CLOUDY    41  23  48 S13       29.94F
FT BELVOIR     CLOUDY    44  20  38 SE7       29.95F
QUANTICO       CLOUDY    47  24  40 S16       29.98F
COLLEGE PARK*  CLOUDY    43  25  49 S5        29.95F
LEESBURG*      CLOUDY    43  25  49 S6        29.94F
MANASSAS*      CLOUDY    45  19  36 S7        29.95F
GAITHERSBURG*  CLOUDY    39  21  48 S6        29.97F

$$

MDZ006>007-011-014-301100-
BALTIMORE METRO

CITY           SKY/WX    TMP DP  RH WIND       PRES   REMARKS
BWI AIRPORT    CLOUDY    38  27  64 S5        29.95F
MARTIN STATE   PTCLDY    41  30  65 MISG      29.97F
ANNAPOLIS      LGT RAIN  38  29  70 S6        29.97F

$$

MDZ012-015-019>023-301100-
MARYLAND EASTERN SHORE

CITY           SKY/WX    TMP DP  RH WIND       PRES   REMARKS
OCEAN CITY     CLOUDY    41  31  67 SW15      30.05F
SALISBURY      CLOUDY    41  23  48 S13       30.03F
BAY BRIDGE AP* LGT RAIN  37  32  81 S7        29.99F
CAMBRIDGE*     CLOUDY    43  25  49 S5        30.01F
EASTON*        LGT RAIN  40  32  74 W14G29    30.06R

$$

MDZ017>025-301100-
SOUTHERN MARYLAND

CITY           SKY/WX    TMP DP  RH WIND       PRES   REMARKS
PATUXENT RIVER CLOUDY    43  18  36 SW9       30.01F
ST INIGOES     CLOUDY    43  20  39 S7        30.02F
LEONARDTOWN*   CLOUDY    41  19  42 S6        30.02F

$$

MDZ003>005-301100-
NORTH CENTRAL MARYLAND

CITY           SKY/WX    TMP DP  RH WIND       PRES   REMARKS
FREDERICK*     CLOUDY    43  16  33 S6        29.96S
HAGERSTOWN APT CLOUDY    42  13  30 S9        29.88F
WESTMINSTER*   CLOUDY    37  25  60 S8        29.91F

$$

MDZ501>502-301100-
WESTERN MARYLAND

CITY           SKY/WX    TMP DP  RH WIND       PRES   REMARKS
OAKLAND*       CLOUDY    32 N/A N/A W17G30    29.79F FOG     WCI  21
CUMBERLAND*    MOCLDY    39  36  87 S5        29.90F

$$

VAZ025>031-301100-
SHENANDOAH VALLEY

CITY           SKY/WX    TMP DP  RH WIND       PRES   REMARKS
WINCHESTER*    CLOUDY    41  10  28 CALM      29.89F
FRONT ROYAL*   CLOUDY    45  18  33 SW7       29.89F
LURAY*         CLOUDY    45  21  39 SW9       29.90F
NEW MARKET*    CLOUDY    39  21  49 SW3       29.91F
STAUNTON*      MOCLDY    44  18  35 SW10      29.93F
WAYNESBORO*    PTSUNNY   44  23  43 CALM      29.92F

$$

WVZ021-048>050-054>055-301100-
EASTERN WEST VIRGINIA PANHANDLE

CITY           SKY/WX    TMP DP  RH WIND       PRES   REMARKS
MARTINSBURG    CLOUDY    42  16  34 S3        29.90F
PETERSBURG*    CLOUDY    46  31  55 S10G16    29.87F

$$

VAZ036>039-050-301100-
CENTRAL FOOTHILLS

CITY           SKY/WX    TMP DP  RH WIND       PRES   REMARKS
CHARLOTTESVILL CLOUDY    43  18  36 SW10      29.94F
CULPEPER*      CLOUDY    46  18  31 S6        29.95F
ORANGE*        CLOUDY    45  19  36 SE8       29.96F
GORDONSVILLE*  CLOUDY    43  20  38 SW7       29.94F
WARRENTON*     CLOUDY    46  25  44 S8        29.94F

$$

VAZ055>057-301100-
NORTH AND CENTRAL PIEDMONT

CITY           SKY/WX    TMP DP  RH WIND       PRES   REMARKS
FREDERICKSBRG* LGT RAIN  46  21  38 S9        29.97F
STAFFORD*      CLOUDY    44  14  29 S7        30.00F

$$

NCZ024-NYZ072-PAZ021-071-VAZ022-071-301100-
OTHER REGIONAL OBSERVATIONS

CITY           SKY/WX    TMP DP  RH WIND       PRES   REMARKS
NEW YORK CITY  CLOUDY    39  15  37 VRB7      29.99F
PHILADELPHIA   CLOUDY    35  31  85 S10       29.99F WCI  27
PITTSBURGH     CLOUDY    40  38  93 SW10      29.83S
ROANOKE        CLOUDY    44  25  47 CALM      29.99F
RICHMOND       CLOUDY    43  19  38 S9        30.03F
RALEIGH        MOCLDY    42  25  50 SW15      30.09F

$$

ANZ530>537-301100-
MARINE OBSERVATIONS

STATION/POSITION TIME  TEMP    WIND        PRES
                       AIR SEA DIR/SP/G
                 (UTC) (F)     (DEG/KT/KT) (MB)
THOMAS PT LIGHT  1000                        N/A
BALT KEY BRIDGE  0900   40     150/  6/  8 1015.6F
COVE POINT       0900   43     240/ 10/ 12 1016.8F
LEWISETTA        0900   44 42              1016.4F
SOLOMONS ISLAND  0900      43                N/A
PINEY POINT      0912          310/  5/  7   N/A

$$



USA.gov is the U.S. government's official web portal to all federal, state and local government web resources and services.